FW4606 Weather Reports


time (UTC)temp
F
wind
direction
speed
knots
gust
knots
rain 1hr
in
rain 24hr
in
rain mn
in
humidity
%
barometer
mb
20260507031518 39 143 0.0 0.0 0.00 0.00 0.00 66 1014.7
20260507030748 39 144 0.0 0.0 0.00 0.00 0.00 65 1014.7
20260507030246 40 143 0.0 0.0 0.00 0.00 0.00 64 1014.7
20260507025746 40 144 0.0 0.0 0.00 0.00 0.00 64 1014.8
20260507025247 40 143 0.0 0.0 0.00 0.00 0.00 64 1014.7
20260507024746 40 143 0.0 0.0 0.00 0.00 0.00 64 1014.8
20260507024247 40 144 0.0 0.0 0.00 0.00 0.00 64 1014.8
20260507023747 40 143 0.0 0.0 0.00 0.00 0.00 64 1014.9
20260507023518 40 143 0.0 0.0 0.00 0.00 0.00 64 1014.8
20260507022747 40 143 0.0 0.0 0.00 0.00 0.00 63 1014.8
20260507022248 40 143 0.0 0.0 0.00 0.00 0.00 62 1014.8
20260507021742 40 143 0.0 0.0 0.00 0.00 0.00 61 1014.8
20260507021512 41 143 0.0 0.0 0.00 0.00 0.00 60 1014.9
20260507020740 41 144 0.0 0.0 0.00 0.00 0.00 60 1014.8
20260507020236 41 144 0.0 0.0 0.00 0.00 0.00 60 1014.8
20260507015738 42 143 0.0 0.9 0.00 0.00 0.00 59 1014.8
20260507015237 42 144 0.0 0.9 0.00 0.00 0.00 59 1014.8
20260507014738 42 143 0.0 0.9 0.00 0.00 0.00 57 1014.8
20260507014238 42 208 0.0 0.9 0.00 0.00 0.00 58 1014.7
20260507014008 43 143 0.0 0.9 0.00 0.00 0.00 57 1014.7
20260507013509 43 155 0.9 2.6 0.00 0.00 0.00 56 1014.7
20260507012737 43 262 1.7 4.3 0.00 0.00 0.00 56 1014.7
20260507012237 43 205 1.7 4.3 0.00 0.00 0.00 55 1014.7
20260507011732 43 199 0.9 4.3 0.00 0.00 0.00 54 1014.7
20260507011501 43 135 0.9 3.5 0.00 0.00 0.00 55 1014.7
20260507010733 44 184 0.9 3.5 0.00 0.00 0.00 54 1014.7
20260507010230 44 159 1.7 3.5 0.00 0.00 0.00 54 1014.7
20260507005730 44 150 1.7 3.5 0.00 0.00 0.00 54 1014.7
20260507005230 44 109 1.7 3.5 0.00 0.00 0.00 55 1014.7
20260507004731 44 184 0.9 3.5 0.00 0.00 0.00 54 1014.7
20260507004230 44 159 0.9 2.6 0.00 0.00 0.00 55 1014.8
20260507003729 44 136 0.9 2.6 0.00 0.00 0.00 53 1014.8
20260507003228 44 162 0.0 2.6 0.00 0.00 0.00 53 1014.8
20260507002730 44 160 0.0 2.6 0.00 0.00 0.00 54 1014.8
20260507002222 44 205 0.0 1.7 0.00 0.00 0.00 53 1014.8
20260507001723 44 120 0.9 2.6 0.00 0.00 0.00 52 1014.8
20260507001221 44 285 0.9 2.6 0.00 0.00 0.00 53 1014.9
20260507000722 44 184 0.0 2.6 0.00 0.00 0.00 53 1015.0
20260507000220 45 159 0.9 2.6 0.00 0.00 0.00 53 1015.0
20260506235719 45 122 0.9 3.5 0.00 0.00 0.00 52 1014.9
20260506235220 45 158 0.9 3.5 0.00 0.00 0.00 52 1015.0
20260506234949 45 197 0.9 4.3 0.00 0.00 0.00 51 1015.0
20260506234218 45 199 0.9 4.3 0.00 0.00 0.00 51 1015.0
20260506233950 45 191 0.9 2.6 0.00 0.00 0.00 52 1015.1
20260506233220 45 173 0.9 3.5 0.00 0.00 0.00 53 1015.1
20260506232716 45 204 0.9 3.5 0.00 0.00 0.00 53 1015.1
20260506232214 45 160 0.9 3.5 0.00 0.00 0.00 52 1015.2
20260506231946 45 101 0.0 2.6 0.00 0.00 0.00 53 1015.2
20260506231215 45 165 0.0 1.7 0.00 0.00 0.00 52 1015.1
20260506230715 46 195 0.0 0.9 0.00 0.00 0.00 52 1015.1
20260506230216 45 53 0.0 2.6 0.00 0.00 0.00 52 1015.1
20260506225715 45 272 0.9 2.6 0.00 0.00 0.00 53 1015.1
20260506225216 46 170 1.7 4.3 0.00 0.00 0.00 51 1015.2
20260506224715 46 198 1.7 5.2 0.00 0.00 0.00 52 1015.3
20260506224216 46 190 0.9 6.1 0.00 0.00 0.00 51 1015.2
20260506223711 46 142 1.7 6.1 0.00 0.00 0.00 53 1015.2
20260506223210 46 181 2.6 6.1 0.00 0.00 0.00 52 1015.2
20260506222710 46 197 3.5 7.8 0.00 0.00 0.00 51 1015.2
20260506222210 46 176 3.5 7.8 0.00 0.00 0.00 50 1015.2
20260506221710 46 191 2.6 7.0 0.00 0.00 0.00 50 1015.2
20260506221210 47 156 1.7 6.1 0.00 0.00 0.00 51 1015.3
20260506220712 47 170 0.9 4.3 0.00 0.00 0.00 51 1015.4
20260506220211 46 197 0.9 4.3 0.00 0.00 0.00 52 1015.3
20260506215711 46 224 0.9 2.6 0.00 0.00 0.00 52 1015.4
20260506215207 46 153 1.7 5.2 0.00 0.00 0.00 52 1015.4
20260506214938 46 218 1.7 5.2 0.00 0.00 0.00 52 1015.5
20260506214438 45 166 1.7 5.2 0.00 0.00 0.00 53 1015.5
20260506213708 45 159 1.7 5.2 0.00 0.00 0.00 52 1015.6
20260506213439 45 195 0.9 5.2 0.00 0.00 0.00 53 1015.6
20260506212707 45 166 1.7 5.2 0.00 0.00 0.00 51 1015.6
20260506212207 45 214 1.7 5.2 0.00 0.00 0.00 54 1015.7
20260506211940 45 129 2.6 5.2 0.00 0.00 0.00 54 1015.7
20260506211208 45 163 2.6 5.2 0.00 0.00 0.00 52 1015.7
20260506210702 45 191 1.7 5.2 0.00 0.00 0.00 52 1015.7
20260506210202 45 207 0.9 3.5 0.00 0.00 0.00 54 1015.7
20260506210100 45 92 1.7 6.1 0.00 0.00 0.00 54 1015.9
20260506205718 45 129 0.9 6.1 0.00 0.00 0.00 54 1015.8
20260506205449 45 266 1.7 6.1 0.00 0.00 0.00 53 1015.9
20260506204202 45 118 2.6 6.1 0.00 0.00 0.00 53 1015.9
20260506203704 45 157 3.5 8.7 0.00 0.00 0.00 52 1016.0
20260506203211 45 188 0.9 5.2 0.00 0.00 0.00 52 1016.0
20260506203202 45 159 2.6 8.7 0.00 0.00 0.00 53 1015.9
20260506202212 45 132 1.7 5.2 0.00 0.00 0.00 52 1016.0
20260506202203 45 217 0.0 3.5 0.00 0.00 0.00 51 1016.0
20260506201205 45 153 2.6 6.1 0.00 0.00 0.00 53 1016.0
20260506200706 46 159 2.6 7.0 0.00 0.00 0.00 52 1015.9
20260506200211 46 144 0.9 6.1 0.00 0.00 0.00 52 1016.1
20260506200205 46 188 2.6 7.0 0.00 0.00 0.00 51 1016.0
20260506195703 46 159 1.7 6.1 0.00 0.00 0.00 52 1016.0
20260506194704 46 150 0.9 5.2 0.00 0.00 0.00 52 1016.0
20260506194433 46 105 1.7 5.2 0.00 0.00 0.00 52 1016.0
20260506193702 46 168 2.6 6.1 0.00 0.00 0.00 57 1016.1
20260506193203 46 181 1.7 6.1 0.00 0.00 0.00 52 1016.1
20260506192703 46 209 0.9 4.3 0.00 0.00 0.00 54 1016.1
20260506192200 45 95 0.9 5.2 0.00 0.00 0.00 51 1016.1
20260506191700 45 107 0.9 5.2 0.00 0.00 0.00 52 1016.2
20260506191206 45 17 0.9 2.6 0.00 0.00 0.00 55 1016.2
20260506191201 45 162 0.9 2.6 0.00 0.00 0.00 54 1016.2
20260506190202 45 323 0.9 5.2 0.00 0.00 0.00 52 1016.2
20260506185658 45 288 0.9 5.2 0.00 0.00 0.00 54 1016.2
20260506185428 45 115 0.9 5.2 0.00 0.00 0.00 54 1016.2
20260506184655 45 277 0.9 5.2 0.00 0.00 0.00 53 1016.3
20260506184420 44 184 1.7 7.0 0.00 0.00 0.00 53 1016.3
20260506183918 44 172 1.7 7.0 0.00 0.00 0.00 54 1016.3
20260506183149 44 103 0.9 6.1 0.00 0.00 0.00 55 1016.4
20260506182655 44 75 0.0 3.5 0.00 0.00 0.00 55 1016.3
20260506182649 44 356 0.9 4.3 0.00 0.00 0.00 57 1016.3
20260506181644 43 359 0.9 4.3 0.00 0.00 0.00 55 1016.3
20260506181146 43 118 0.9 4.3 0.00 0.00 0.00 55 1016.4
20260506180644 43 144 0.9 3.5 0.00 0.00 0.00 54 1016.4
20260506180142 44 359 0.0 2.6 0.00 0.00 0.00 54 1016.5
20260506175642 44 108 0.0 1.7 0.00 0.00 0.00 54 1016.5
20260506175140 44 9 0.0 1.7 0.00 0.00 0.00 55 1016.5
20260506174639 44 335 0.0 3.5 0.00 0.00 0.00 55 1016.4
20260506174413 44 312 0.0 4.3 0.00 0.00 0.00 58 1016.5
20260506173910 44 356 0.0 4.3 0.00 0.00 0.00 56 1016.5
20260506173139 44 67 0.0 4.3 0.00 0.00 0.00 55 1016.5
20260506172634 44 20 0.9 4.3 0.00 0.00 0.00 55 1016.5
20260506172137 44 257 0.9 4.3 0.00 0.00 0.00 57 1016.6
20260506171629 44 167 0.9 2.6 0.00 0.00 0.00 59 1016.6
20260506171123 43 20 0.0 2.6 0.00 0.00 0.00 59 1016.7
20260506170616 43 152 0.9 4.3 0.00 0.00 0.00 56 1016.6
20260506170341 43 94 0.9 4.3 0.00 0.00 0.00 57 1016.7
20260506165608 42 118 0.0 4.3 0.00 0.00 0.00 60 1016.8
20260506165108 42 92 0.0 4.3 0.00 0.00 0.00 56 1016.7
20260506164608 43 298 0.0 2.6 0.00 0.00 0.00 57 1016.8
20260506164104 43 0 0.9 3.5 0.00 0.00 0.00 58 1016.7
20260506163604 43 131 0.0 3.5 0.00 0.00 0.00 56 1016.7
20260506163104 43 115 0.0 0.9 0.00 0.00 0.00 55 1016.7
20260506162835 43 130 0.0 3.5 0.00 0.00 0.00 55 1016.6
20260506162104 43 13 0.0 3.5 0.00 0.00 0.00 59 1016.6
20260506161559 43 107 0.0 1.7 0.00 0.00 0.00 56 1016.7
20260506161059 42 139 0.9 5.2 0.00 0.00 0.00 59 1016.7
20260506160559 42 329 0.9 5.2 0.00 0.00 0.00 58 1016.7
20260506160058 41 173 0.0 2.6 0.00 0.00 0.00 60 1016.8
20260506155830 41 113 0.0 2.6 0.00 0.00 0.00 58 1016.7
20260506155057 41 3 0.0 1.7 0.00 0.00 0.00 59 1016.7
20260506154556 41 45 0.0 4.3 0.00 0.00 0.00 59 1016.7
20260506154057 41 51 0.0 4.3 0.00 0.00 0.00 61 1016.7
20260506153556 40 111 0.0 1.7 0.00 0.00 0.00 59 1016.7
20260506153058 41 249 0.0 1.7 0.00 0.00 0.00 61 1016.7
20260506152828 40 45 0.0 3.5 0.00 0.00 0.00 62 1016.6
20260506152051 40 118 0.0 3.5 0.00 0.00 0.00 63 1016.6
20260506151545 40 340 0.0 1.7 0.00 0.00 0.00 59 1016.6
20260506151311 40 127 0.0 1.7 0.00 0.00 0.00 60 1016.6
20260506150533 40 16 0.0 4.3 0.00 0.00 0.00 60 1016.7
20260506150026 40 114 0.0 4.3 0.00 0.00 0.00 61 1016.7
20260506145521 40 135 0.0 2.6 0.00 0.00 0.00 60 1016.7
20260506145245 40 356 0.0 2.6 0.00 0.00 0.00 62 1016.6
20260506144509 40 105 0.0 3.5 0.00 0.00 0.00 63 1016.6
20260506144002 40 150 0.0 3.5 0.00 0.00 0.00 63 1016.6
20260506143456 40 139 0.0 2.6 0.00 0.00 0.00 64 1016.6
20260506142951 40 141 0.0 2.6 0.00 0.00 0.00 64 1016.6
20260506142445 40 47 0.0 3.5 0.00 0.00 0.00 62 1016.6
20260506141939 40 6 0.0 3.5 0.00 0.00 0.00 64 1016.5
20260506141433 39 131 0.0 2.6 0.00 0.00 0.00 63 1016.6
20260506141158 39 84 0.0 1.7 0.00 0.00 0.00 64 1016.6
20260506140420 39 136 0.0 0.9 0.00 0.00 0.00 66 1016.5
20260506135915 39 42 0.0 0.9 0.00 0.00 0.00 67 1016.5
20260506135409 38 166 0.0 2.6 0.00 0.00 0.00 67 1016.5
20260506134902 38 354 0.0 2.6 0.00 0.00 0.00 67 1016.4
20260506134357 38 9 0.0 0.9 0.00 0.00 0.00 67 1016.4
20260506134352 37 100 0.0 0.9 0.00 0.00 0.00 67 1016.3
20260506133344 37 8 0.0 1.7 0.00 0.00 0.00 67 1016.3
20260506133107 37 174 0.0 2.6 0.00 0.00 0.00 70 1016.1
20260506132942 37 109 0.0 2.6 0.00 0.00 0.00 69 1016.2
20260506132059 36 119 0.0 3.5 0.00 0.00 0.00 72 1016.0
20260506131549 35 197 0.0 2.6 0.00 0.00 0.00 76 1016.0
20260506131422 36 175 0.0 3.5 0.00 0.00 0.00 74 1015.9
20260506130309 34 238 0.0 0.9 0.00 0.00 0.00 78 1015.8
20260506125803 33 110 0.0 1.7 0.00 0.00 0.00 79 1015.7
20260506125529 33 125 0.0 1.7 0.00 0.00 0.00 81 1015.7
20260506124751 31 89 0.0 0.9 0.00 0.00 0.00 81 1015.7
20260506124248 31 354 0.0 0.9 0.00 0.00 0.00 83 1015.6
20260506123748 30 133 0.0 0.0 0.00 0.00 0.00 84 1015.6
20260506123518 29 114 0.0 0.0 0.00 0.00 0.00 85 1015.6
20260506122749 29 111 0.0 0.9 0.00 0.00 0.00 85 1015.6
20260506122248 28 112 0.0 0.9 0.00 0.00 0.00 85 1015.6
20260506121748 28 153 0.0 0.0 0.00 0.00 0.00 85 1015.5
20260506121246 28 153 0.0 0.0 0.00 0.00 0.00 85 1015.5
20260506120746 28 153 0.0 0.0 0.00 0.00 0.00 85 1015.4
20260506120518 28 129 0.0 0.0 0.00 0.00 0.00 85 1015.4
20260506115744 28 129 0.0 0.0 0.00 0.00 0.00 84 1015.4
20260506115243 28 129 0.0 0.0 0.00 0.00 0.00 85 1015.4
20260506114741 28 128 0.0 0.0 0.00 0.00 0.00 85 1015.3
20260506114240 27 129 0.0 0.0 0.00 0.00 0.00 85 1015.2
20260506113741 27 128 0.0 0.0 0.00 0.00 0.00 85 1015.2
20260506113239 27 128 0.0 0.0 0.00 0.00 0.00 85 1015.1
20260506112738 27 128 0.0 0.0 0.00 0.00 0.00 86 1015.1
20260506112239 27 128 0.0 0.0 0.00 0.00 0.00 86 1015.1
20260506111742 27 129 0.0 0.0 0.00 0.00 0.00 86 1015.2
20260506111235 27 128 0.0 0.0 0.00 0.00 0.00 86 1015.2
20260506110730 27 148 0.0 0.0 0.00 0.00 0.00 86 1015.3
20260506110223 27 143 0.0 0.0 0.00 0.00 0.00 86 1015.2
20260506105718 27 143 0.0 0.0 0.00 0.00 0.00 85 1015.1
20260506105212 27 128 0.0 0.0 0.00 0.00 0.00 85 1015.1
20260506104706 27 127 0.0 0.0 0.00 0.00 0.00 87 1015.0
20260506104200 26 132 0.0 0.0 0.00 0.00 0.00 86 1014.8
20260506103653 26 133 0.0 0.0 0.00 0.00 0.00 86 1014.7
20260506103147 26 133 0.0 0.0 0.00 0.00 0.00 86 1014.5
20260506102642 26 133 0.0 0.0 0.00 0.00 0.00 86 1014.5
20260506102136 26 132 0.0 0.0 0.00 0.00 0.00 85 1014.6
20260506101629 27 133 0.0 0.0 0.00 0.00 0.00 85 1014.5
20260506101125 27 133 0.0 0.0 0.00 0.00 0.00 85 1014.5
20260506100617 27 132 0.0 0.0 0.00 0.00 0.00 85 1014.5
20260506100111 27 132 0.0 0.0 0.00 0.00 0.00 85 1014.6
20260506095606 27 133 0.0 0.0 0.00 0.00 0.00 86 1014.6
20260506095100 27 133 0.0 0.0 0.00 0.00 0.00 86 1014.6
20260506094554 27 132 0.0 0.0 0.00 0.00 0.00 86 1014.6
20260506094047 27 132 0.0 0.0 0.00 0.00 0.00 85 1014.7
20260506093541 27 132 0.0 0.0 0.00 0.00 0.00 84 1014.7
20260506093311 28 132 0.0 0.0 0.00 0.00 0.00 84 1014.6
20260506093035 27 133 0.0 0.0 0.00 0.00 0.00 84 1014.7
20260506092023 27 133 0.0 0.0 0.00 0.00 0.00 85 1014.6
20260506091517 27 133 0.0 0.0 0.00 0.00 0.00 85 1014.5
20260506091011 27 86 0.0 0.0 0.00 0.00 0.00 85 1014.5
20260506090505 27 84 0.0 0.0 0.00 0.00 0.00 86 1014.4
20260506090230 27 85 0.0 0.0 0.00 0.00 0.00 85 1014.4
20260506085454 27 85 0.0 0.0 0.00 0.00 0.00 85 1014.3
20260506084948 27 84 0.0 0.0 0.00 0.00 0.00 84 1014.2
20260506084441 27 84 0.0 0.0 0.00 0.00 0.00 85 1014.2
20260506083935 27 85 0.0 0.0 0.00 0.00 0.00 85 1014.2
20260506083700 27 92 0.0 0.0 0.00 0.00 0.00 86 1014.3
20260506082924 27 92 0.0 0.0 0.00 0.00 0.00 86 1014.3
20260506082418 27 91 0.0 0.0 0.00 0.00 0.00 86 1014.3
20260506081911 27 92 0.0 0.0 0.00 0.00 0.00 85 1014.3
20260506081636 27 92 0.0 0.0 0.00 0.00 0.00 83 1014.4
20260506080859 28 92 0.0 0.0 0.00 0.00 0.00 82 1014.4
20260506080359 29 92 0.0 0.0 0.00 0.00 0.00 80 1014.2
20260506080353 28 92 0.0 0.0 0.00 0.00 0.00 81 1014.3
20260506073317 30 92 0.0 0.0 0.00 0.00 0.00 79 1014.1
20260506073043 30 92 0.0 0.0 0.00 0.00 0.00 79 1014.1
20260506072306 30 91 0.0 0.0 0.00 0.00 0.00 79 1014.1
20260506071800 30 91 0.0 0.0 0.00 0.00 0.00 78 1014.1
20260506071254 30 92 0.0 0.0 0.00 0.00 0.00 78 1014.1
20260506070752 30 91 0.0 0.0 0.00 0.00 0.00 79 1014.2
20260506070237 30 92 0.0 0.0 0.00 0.00 0.00 78 1014.2
20260506062149 30 92 0.0 0.0 0.00 0.00 0.00 80 1014.2
20260506061643 29 92 0.0 0.0 0.00 0.00 0.00 80 1014.2
20260506061411 30 91 0.0 0.0 0.00 0.00 0.00 80 1014.2
20260506060637 30 91 0.0 0.0 0.00 0.00 0.00 79 1014.1
20260506060136 30 92 0.0 0.0 0.00 0.00 0.00 79 1014.2
20260506051134 32 92 0.0 0.0 0.00 0.00 0.00 75 1013.7
20260506050631 32 92 0.0 0.0 0.00 0.00 0.00 76 1013.6
20260506050130 32 91 0.0 0.0 0.00 0.00 0.00 76 1013.6
20260506045124 32 92 0.0 0.0 0.00 0.00 0.00 76 1013.5
20260506044625 32 91 0.0 0.0 0.00 0.00 0.00 75 1013.5
20260506044126 32 91 0.0 0.0 0.00 0.00 0.00 75 1013.6
20260506043624 33 91 0.0 0.0 0.00 0.00 0.00 74 1013.6
20260506043124 33 92 0.0 0.0 0.00 0.00 0.00 74 1013.6
20260506042623 33 90 0.0 0.0 0.00 0.00 0.00 74 1013.6
20260506042122 33 166 0.0 0.0 0.00 0.00 0.00 74 1013.5
20260506041623 33 179 0.0 0.0 0.00 0.00 0.00 73 1013.5
20260506041123 33 179 0.0 0.0 0.00 0.00 0.00 71 1013.5
20260506040622 34 181 0.0 0.0 0.00 0.00 0.00 71 1013.4
20260506040124 34 179 0.0 0.9 0.00 0.00 0.00 70 1013.2
20260506035620 35 180 0.0 0.9 0.00 0.00 0.00 70 1013.2
20260506035119 35 190 0.0 1.7 0.00 0.00 0.00 69 1013.2
20260506034619 35 190 0.0 1.7 0.00 0.00 0.00 69 1013.1
20260506034119 35 139 0.0 0.0 0.00 0.00 0.00 69 1013.1
20260506033620 35 115 0.0 0.0 0.00 0.00 0.00 69 1012.9
20260506033121 35 141 0.0 0.9 0.00 0.00 0.00 70 1012.8
20260506032618 35 107 0.0 0.9 0.00 0.00 0.00 70 1012.9
20260506032118 35 144 0.0 0.0 0.00 0.00 0.00 70 1012.9